Change the Weather History Date:

Wednesday, May 22, 2013

  Actual Average Record
Temperature  
Mean Temperature 70 °F 65 °F  
Max Temperature 76 °F 76 °F 90 °F (1962)
Min Temperature 63 °F 54 °F 35 °F (1997)
Degree Days  
Heating Degree Days 0 3  
Month to date heating degree days 67 114  
Since 1 July heating degree days 5250 5334  
Cooling Degree Days 5 3  
Month to date cooling degree days 62 39  
Year to date cooling degree days 69 54  
Growing Degree Days 18 (Base 50)    
Moisture  
Dew Point 61 °F    
Average Humidity 70    
Maximum Humidity 87    
Minimum Humidity 53    
Precipitation  
Precipitation 0.23 in 0.23 in 1.38 in (1957)
Month to date precipitation 2.82 5.08  
Year to date precipitation 19.48 16.89  
Sea Level Pressure  
Sea Level Pressure 29.75 in    
Wind  
Wind Speed 10 mph (SSW)    
Max Wind Speed 24 mph    
Max Gust Speed 30 mph    
Visibility 9 miles    
Events Rain , Thunderstorm    
T = Trace of Precipitation, MM = Missing Value Source: NWS Daily Summary

Daily Weather History Graph

Daily Weather History Graph

Search for Another Location

Airport or City:

Trip Planner

Search our weather history database for the weather conditions in past years. The results will help you decide how hot, cold, wet, or windy it might be!

Date:

Astronomy

May. 22, 2013 Rise Set
Actual Time 6:29 AM EDT 9:02 PM EDT
Civil Twilight 5:58 AM EDT 9:33 PM EDT
Nautical Twilight 5:20 AM EDT 10:12 PM EDT
Astronomical Twilight 4:37 AM EDT 10:55 PM EDT
Moon 6:25 PM EDT (5/22) 4:32 AM EDT (5/22)
Length of Visible Light 15h 35m
Length of Day
14h 33m
Waxing Gibbous, 91% of the Moon is Illuminated
May 22
Waxing Gibbous
May 25
Full
May 31
Last Quarter
Jun 8
New
Jun 16
First Quarter

Hourly Weather History & Observations

Time (EDT) Temp. Dew Point Humidity Pressure Visibility Wind Dir Wind Speed Gust Speed Precip Events Conditions
12:53 AM 70.0 °F 61.0 °F 73% 29.77 in 10.0 mi South 11.5 mph - N/A   Overcast
1:53 AM 68.0 °F 63.0 °F 84% 29.77 in 10.0 mi SSW 9.2 mph - N/A   Mostly Cloudy
2:53 AM 68.0 °F 62.1 °F 81% 29.75 in 10.0 mi South 9.2 mph - N/A   Overcast
3:42 AM 66.2 °F 62.6 °F 88% 29.74 in 10.0 mi South 8.1 mph - N/A   Scattered Clouds
3:53 AM 66.0 °F 62.1 °F 87% 29.72 in 10.0 mi South 8.1 mph - N/A   Partly Cloudy
4:21 AM 66.2 °F 62.6 °F 88% 29.74 in 10.0 mi South 9.2 mph - N/A   Overcast
4:53 AM 66.0 °F 63.0 °F 90% 29.73 in 10.0 mi South 10.4 mph - 0.00 in Rain Light Rain
5:33 AM 66.2 °F 62.6 °F 88% 29.74 in 10.0 mi SSW 8.1 mph - 0.00 in   Overcast
5:42 AM 66.2 °F 62.6 °F 88% 29.75 in 10.0 mi SSW 8.1 mph - 0.00 in   Overcast
5:53 AM 66.0 °F 62.1 °F 87% 29.75 in 10.0 mi SSW 8.1 mph - 0.00 in   Overcast
6:40 AM 66.2 °F 62.6 °F 88% 29.76 in 10.0 mi South 10.4 mph - 0.01 in Rain Light Rain
6:53 AM 66.0 °F 63.0 °F 90% 29.74 in 10.0 mi South 9.2 mph - 0.01 in Rain Light Rain
7:53 AM 66.0 °F 63.0 °F 90% 29.71 in 10.0 mi SSE 5.8 mph - 0.01 in   Overcast
8:45 AM 66.2 °F 64.4 °F 94% 29.73 in 10.0 mi South 12.7 mph - N/A   Mostly Cloudy
8:53 AM 68.0 °F 64.0 °F 87% 29.72 in 10.0 mi South 10.4 mph - N/A   Scattered Clouds
9:00 AM 68.0 °F 64.4 °F 88% 29.74 in 10.0 mi South 13.8 mph - N/A   Mostly Cloudy
9:51 AM 69.8 °F 62.6 °F 78% 29.75 in 10.0 mi South 13.8 mph 21.9 mph N/A   Mostly Cloudy
9:53 AM 70.0 °F 62.1 °F 76% 29.73 in 10.0 mi South 15.0 mph 21.9 mph N/A   Mostly Cloudy
10:00 AM 69.8 °F 62.6 °F 78% 29.75 in 10.0 mi SSW 13.8 mph 20.7 mph N/A   Mostly Cloudy
10:53 AM 69.1 °F 60.1 °F 73% 29.74 in 10.0 mi SW 12.7 mph 20.7 mph N/A   Overcast
11:23 AM 69.8 °F 60.8 °F 73% 29.76 in 10.0 mi SW 16.1 mph 23.0 mph 0.00 in Rain Light Rain
11:53 AM 71.1 °F 59.0 °F 66% 29.75 in 10.0 mi SSW 18.4 mph 23.0 mph 0.00 in   Mostly Cloudy
12:53 PM 73.0 °F 60.1 °F 64% 29.75 in 10.0 mi SSW 16.1 mph - N/A   Overcast
1:53 PM 73.0 °F 59.0 °F 61% 29.75 in 10.0 mi SW 15.0 mph 24.2 mph N/A   Overcast
2:53 PM 75.0 °F 60.1 °F 60% 29.75 in 10.0 mi SW 12.7 mph 27.6 mph N/A   Scattered Clouds
3:20 PM 66.2 °F 60.8 °F 83% 29.77 in 1.8 mi WSW 16.1 mph 29.9 mph 0.06 in Rain Heavy Rain
3:31 PM 64.4 °F 60.8 °F 88% 29.78 in 3.0 mi SW 12.7 mph 20.7 mph 0.12 in Rain Light Rain
3:53 PM 69.1 °F 61.0 °F 75% 29.76 in 10.0 mi SW 9.2 mph - 0.13 in   Mostly Cloudy
4:53 PM 75.9 °F 63.0 °F 64% 29.73 in 10.0 mi WSW 11.5 mph 18.4 mph N/A   Partly Cloudy
5:53 PM 75.0 °F 59.0 °F 57% 29.72 in 10.0 mi SW 11.5 mph 21.9 mph N/A   Partly Cloudy
6:53 PM 73.9 °F 55.9 °F 53% 29.73 in 10.0 mi West 10.4 mph - N/A   Overcast
7:53 PM 73.0 °F 55.0 °F 53% 29.75 in 10.0 mi West 11.5 mph - N/A   Mostly Cloudy
8:53 PM 69.1 °F 55.0 °F 61% 29.76 in 10.0 mi SW 8.1 mph - N/A   Clear
9:53 PM 68.0 °F 57.0 °F 68% 29.77 in 10.0 mi SW 8.1 mph 16.1 mph 0.00 in Rain Light Rain
10:33 PM 64.4 °F 59.0 °F 83% 29.81 in 3.0 mi NW 8.1 mph - 0.08 in Rain , Thunderstorm Heavy Rain
10:48 PM 62.6 °F 59.0 °F 88% 29.81 in 10.0 mi NNW 3.5 mph - 0.08 in   Overcast
10:53 PM 63.0 °F 60.1 °F 90% 29.80 in 10.0 mi Calm Calm - 0.08 in   Overcast
11:53 PM 64.0 °F 59.0 °F 84% 29.81 in 10.0 mi WNW 5.8 mph - N/A   Overcast